435  
NZUS01 KOTX 190225  
RWROTX  
 
EASTERN WASHINGTON/NORTHERN IDAHO ROUNDUP  
NATIONAL WEATHER SERVICE, SPOKANE WA  
700 PM PDT MON JUN 18 2018  
 
NOTE: "FAIR" INDICATED FEW OR NO CLOUDS BELOW 12,000 FEET WITH NO  
SIGNIFICANT WEATHER AND/OR S TO VISIBILITY
.  
   
..NORTHEAST WASHINGTON AND NORTHERN IDAHO PANHANDLE
 
 
 
CITY SKY/WX TMP DP RH WIND PRES REMARKS
 
SPOKANE INTL LGT RAIN 62 56 80 N7 30.05S  
SPOKANE DOWNTO CLOUDY 65 56 72 CALM 30.04S  
COEUR D ALENE CLOUDY 63 51 65 N18 30.04S  
DEER PARK CLOUDY 64 51 62 NE7 30.05S  
SANDPOINT CLOUDY 63 50 63 NE17 30.06S  
BONNERS FERRY MOCLDY 61 54 77 CALM 30.09F  
   
..SOUTHEAST WASHINGTON AND SOUTHERN IDAHO PANHANDLE
 
 
 
CITY SKY/WX TMP DP RH WIND PRES REMARKS
 
WALLA WALLA CLOUDY 63 61 93 S3 30.03R FOG  
PULLMAN/MOSCOW CLOUDY 60 58 92 NW7 30.04S  
LEWISTON CLOUDY 64 62 93 SW7 30.00S  
LOWELL N/A 60 60 100 CALM 29.98R  
GRANGEVILLE CLOUDY 55 55 100 CALM 30.03R  
   
..COLUMBIA BASIN
 
 
 
CITY SKY/WX TMP DP RH WIND PRES REMARKS
 
EPHRATA MOSUNNY 78 50 37 S13 29.97R  
MOSES LAKE MOSUNNY 76 51 41 S10 29.99R  
PASCO CLOUDY 69 57 65 SE10 30.00R  
RICHLAND MOCLDY 73 59 62 E8 30.00R  
HERMISTON LGT RAIN 68 58 70 SE5 30.00R  
PENDLETON LGT RAIN 62 56 80 CALM 30.03R  
   
..EAST SLOPES CASCADES
 
 
 
CITY SKY/WX TMP DP RH WIND PRES REMARKS
 
THE DALLES MOSUNNY 81 53 37 N17G23 29.93S  
YAKIMA PTSUNNY 77 51 40 SE10 29.97R  
ELLENSBURG CLOUDY 80 49 33 S7 29.98R  
STAMPEDE PASS CLOUDY 69 44 40 VRB6 30.10R  
WENATCHEE PTSUNNY 78 49 35 SE14 29.94R  
WINTHROP FAIR 85 43 23 S8 29.93R  
OMAK MOSUNNY 87 47 24 S7 29.92R  
SUNNYSIDE MOCLDY 69 54 57 E7 29.99R  
   
..SOUTHERN BRITISH COLUMBIA
 
 
 
CITY SKY/WX TMP DP RH WIND PRES REMARKS
 
PENTICTON MOSUNNY 90 39 17 N13 29.85F  
CASTLEGAR CLOUDY 77 46 33 SW8 29.99R  
CRANBROOK CLOUDY 59 48 67 SW7 30.15R  
OSOYOOS N/A 90 45 20 SE3 N/A  
CRESTON N/A 68 46 45 E6 N/A  
   
..WESTERN MONTANA
 
 
 
CITY SKY/WX TMP DP RH WIND PRES REMARKS
 
KALISPELL CLOUDY 63 47 55 N9 30.07R  
LIBBY N/A 63 55 77 SW6 30.07S  
MISSOULA LGT RAIN 58 54 86 NW9 30.02S  
   
..NEIGHBORING CITIES
 
 
 
CITY SKY/WX TMP DP RH WIND PRES REMARKS
 
SEATTLE PTSUNNY 84 57 39 SW13 29.94S  
PORTLAND CLOUDY 80 58 46 E7 29.98S  
BOISE PTSUNNY 65 49 56 E9 29.99R  
GREAT FALLS LGT RAIN 56 53 90 NE21G31 30.06S FOG  
CALGARY PTSUNNY 66 45 45 SW8 30.18R  
 
CLICK HERE TO GO TO PREVIOUS BULLETINS.

The Nexlab WA Page
The Nexlab ID Page Main Text Page